Wind_Speed
19 19 19 19 19 19 19 19 19 19 19 19 19 19 19 19 20 20 19 19 20 21 22 22 23 24 24 24 24 24 24 24 24 25 25 25 25 26 26 26 25 25 24
19 19 19 19 19 19 20 20 20 20 20 19 19 20 20 20 20 20 20 20 20 22 23 24 24 23 24 25 24 24 24 24 25 24 25 24 24 25 25 25 26 26 26
20 19 19 19 19 19 19 19 19 19 19 19 20 21 21 21 21 21 22 22 22 22 23 24 24 24 24 25 25 25 25 24 24 25 25 25 24 24 25 25 26 26 26
21 20 20 19 19 19 19 19 18 18 19 20 21 21 22 23 22 23 23 24 24 23 23 24 24 25 26 26 27 27 27 26 25 25 26 26 26 26 26 26 26 26 27
20 19 18 18 18 18 18 19 18 19 19 20 21 22 22 23 23 23 24 24 24 23 24 25 25 26 26 26 27 27 28 27 27 27 27 27 27 27 27 27 27 27 27
20 19 19 18 18 17 17 18 18 19 19 19 21 21 21 22 22 23 23 24 24 25 25 25 25 25 26 27 27 28 28 28 28 28 28 28 28 28 27 28 27 27 27
19 19 19 18 17 17 18 17 17 18 18 19 19 20 20 21 22 23 24 24 24 25 25 25 25 26 26 27 28 28 29 29 29 28 28 28 29 29 28 27 28 28 28
18 18 18 17 16 16 16 17 16 17 18 19 19 19 20 21 21 22 23 23 23 23 24 25 26 27 28 28 29 29 29 29 29 29 29 29 30 30 30 29 29 28 28
18 17 17 16 16 16 15 15 16 17 18 18 19 20 20 20 21 22 22 23 23 23 23 24 25 27 27 28 29 29 29 29 29 30 30 30 30 30 30 31 30 29 29
17 15 15 15 15 15 14 15 16 17 18 18 19 19 20 20 20 21 21 21 22 23 23 24 25 25 25 25 27 29 29 29 30 31 31 31 31 31 32 32 31 31 31
16 16 15 16 15 15 14 15 16 17 18 18 19 19 19 20 20 20 20 20 21 21 21 22 22 23 25 25 26 27 29 30 31 31 32 32 32 32 32 32 33 33 32
15 15 15 15 15 15 15 16 17 17 17 18 18 19 19 19 20 21 21 21 20 21 22 23 23 24 26 26 27 27 28 29 30 31 32 33 33 33 33 34 34 33 34
13 14 14 15 15 15 15 17 17 17 18 19 18 19 19 20 20 21 21 21 21 21 22 23 24 25 26 26 27 28 28 29 29 30 31 32 34 34 34 34 35 34 34
13 13 14 15 15 15 16 17 18 18 18 18 18 19 20 20 20 20 21 21 21 22 22 24 25 25 25 26 27 28 29 29 30 31 32 33 34 34 35 35 35 35 34
14 13 14 15 15 15 16 17 17 18 18 19 19 19 19 19 20 21 21 22 22 22 22 23 23 24 24 25 27 28 28 29 30 31 33 34 34 34 34 34 35 34 34
14 14 14 15 15 16 16 17 17 17 17 18 19 19 19 19 19 20 21 22 22 22 21 22 23 24 24 25 25 26 27 28 29 30 31 31 32 33 33 33 33 34 34
14 14 14 14 15 15 15 15 16 16 17 18 18 18 19 19 19 20 21 21 22 22 21 21 22 23 24 24 24 25 26 26 26 27 28 29 30 31 32 32 32 33 34
15 15 15 14 14 14 15 15 15 16 17 18 18 18 18 19 19 20 20 21 21 21 21 20 21 22 23 24 25 25 25 25 25 26 27 27 29 30 31 32 33 34 34
16 15 15 15 15 15 16 15 15 16 17 18 18 18 18 19 19 19 20 20 21 21 21 21 21 22 23 24 24 25 24 25 25 26 27 28 29 30 31 32 33 34 35
16 16 16 16 17 17 16 15 16 16 17 18 18 18 18 19 19 19 20 20 20 20 21 21 21 21 22 23 23 23 23 24 25 26 27 28 28 29 31 32 34 35 35
16 16 16 17 17 17 16 16 17 17 17 17 17 17 18 18 19 19 19 20 20 21 22 21 21 21 21 22 22 23 23 24 26 27 27 28 29 29 31 32 33 35 36
17 17 18 18 18 17 17 17 17 17 17 17 17 17 17 18 19 20 20 21 22 21 22 22 22 22 22 22 21 21 22 24 25 26 27 28 29 30 31 32 33 35 36
17 17 17 17 18 18 17 17 17 17 17 17 17 18 18 19 20 21 21 22 22 22 22 22 22 22 22 22 22 21 22 22 23 25 26 26 27 29 31 32 33 34 35
16 17 17 17 17 18 18 18 17 18 17 18 18 19 20 21 21 22 22 23 23 23 22 22 23 23 24 24 24 23 23 22 23 24 25 26 27 28 29 31 31 33 34
17 17 17 17 18 18 18 18 17 17 17 17 17 18 20 21 21 22 22 22 23 23 23 23 24 24 24 24 24 24 24 23 23 24 24 24 25 26 27 28 29 31 33
18 18 18 18 18 18 18 18 17 17 17 17 18 19 19 20 21 21 22 22 22 23 23 23 24 24 25 25 24 24 24 24 23 24 24 23 24 24 25 26 28 30 31
Wind_Direction
289 286 282 280 277 275 272 272 268 267 269 269 268 270 271 269 268 268 267 267 265 261 261 261 258 255 255 254 255 254 255 256 256 255 256 256 255 252 251 250 248 248 246
292 289 285 281 279 277 274 273 270 269 268 269 270 271 269 269 268 268 268 267 267 264 260 260 258 256 255 255 255 255 256 255 255 255 255 256 256 254 251 250 249 247 246
292 289 288 283 279 276 275 273 271 271 270 271 272 271 271 270 269 269 269 270 268 265 264 259 259 258 257 255 255 255 256 254 255 255 255 254 254 253 250 250 249 248 247
291 288 287 283 278 275 274 272 271 272 271 273 274 273 272 271 270 270 269 270 269 266 264 261 260 260 258 255 255 256 255 255 256 256 255 253 253 252 251 250 248 248 247
290 287 286 283 279 275 274 273 270 271 272 273 274 274 273 273 271 271 270 271 270 267 264 263 261 261 260 257 257 258 257 256 256 257 256 253 252 252 251 249 249 247 247
289 285 283 282 280 276 275 274 271 272 273 274 276 275 274 275 274 273 272 272 271 267 265 265 262 261 260 259 258 258 258 257 256 256 255 254 251 250 250 249 248 247 247
289 284 283 282 281 277 275 274 274 275 275 275 278 278 277 278 278 276 274 273 271 269 267 265 262 261 261 260 259 259 258 257 255 254 255 255 252 250 248 249 248 248 247
290 285 283 285 283 279 276 274 275 276 277 276 279 278 278 280 282 279 277 276 273 270 269 267 264 262 261 261 259 259 259 258 257 255 255 255 252 250 249 250 248 248 248
289 288 287 288 287 283 279 275 276 279 280 279 279 279 281 281 281 280 279 277 274 272 270 269 266 263 262 262 262 262 260 259 259 257 256 255 253 251 250 250 250 248 247
291 294 293 292 290 287 281 277 278 280 281 281 281 281 282 284 283 283 281 279 276 273 271 270 268 265 263 264 264 262 262 261 259 258 257 255 253 252 251 251 250 249 248
292 291 293 291 288 286 283 281 282 283 283 281 280 280 282 284 284 285 283 281 278 275 274 273 272 268 265 265 264 263 262 262 261 258 257 256 255 253 252 252 251 251 250
295 291 292 293 288 286 285 282 282 284 284 285 283 283 284 285 286 286 284 282 281 277 275 275 274 271 267 266 266 265 263 262 261 260 258 257 256 255 254 253 252 252 252
302 301 296 294 290 287 284 281 282 284 284 285 284 284 285 287 288 288 287 285 283 280 276 276 276 274 271 267 267 267 265 264 264 262 260 258 257 256 256 254 253 253 253
301 303 301 297 293 290 286 282 283 285 284 284 285 284 284 285 286 288 288 286 285 282 280 278 277 275 273 270 269 269 267 266 266 266 262 260 258 257 256 255 253 253 251
301 302 302 300 298 294 292 290 288 286 285 285 286 286 287 287 289 289 289 288 287 286 285 281 278 277 274 271 271 270 269 268 268 267 264 260 258 258 256 254 253 252 251
302 302 304 302 299 297 296 294 291 288 287 286 286 287 289 291 293 293 292 292 291 290 288 284 281 280 276 275 275 273 272 272 270 268 265 262 259 257 255 254 253 250 250
303 303 304 305 303 300 300 298 292 288 288 289 291 291 292 295 296 297 296 294 293 292 290 287 284 283 280 277 275 273 272 273 272 269 267 264 262 258 256 254 253 252 250
299 301 303 306 306 306 305 300 294 292 291 291 292 292 293 295 298 299 297 297 296 293 292 290 288 286 282 280 277 276 274 273 271 269 267 265 263 260 258 256 254 254 252
299 302 305 307 307 307 306 303 299 297 294 293 292 292 293 296 299 300 299 299 298 295 293 292 290 288 286 283 281 278 275 273 271 269 267 266 264 261 258 256 256 254 253
301 303 305 305 306 305 305 304 302 300 298 298 298 297 296 296 298 301 301 301 300 297 297 294 292 292 290 288 283 278 276 274 272 271 269 267 266 262 258 256 256 256 255
302 303 302 303 305 304 303 303 302 301 301 301 300 299 298 296 298 300 303 304 302 301 299 298 295 293 292 291 288 283 280 278 275 275 272 268 266 263 260 259 258 257 257
302 301 302 302 303 302 301 301 302 303 303 302 301 300 298 297 299 301 302 302 302 302 300 298 296 293 294 295 293 289 285 281 278 277 275 272 269 266 263 261 260 258 258
303 303 303 301 301 302 301 302 302 303 303 303 303 302 301 301 301 301 300 301 303 303 301 299 299 298 298 298 296 294 290 286 284 282 280 277 274 271 266 263 262 260 260
303 304 304 302 301 301 301 301 302 302 303 303 303 303 304 304 303 303 302 304 304 304 302 300 300 299 299 298 296 294 292 290 289 289 286 282 278 276 271 266 262 260 259
302 304 304 302 302 303 303 303 303 303 304 305 305 306 307 307 306 306 306 307 307 307 306 304 303 303 302 300 297 294 294 293 292 292 290 287 284 280 274 269 264 260 257
298 302 303 303 305 305 305 304 303 305 305 306 308 309 310 310 310 310 310 311 312 311 309 306 305 305 303 301 298 295 296 295 294 293 291 290 289 282 277 273 268 263 259
Height
5825 5824 5824 5823 5823 5823 5823 5824 5824 5824 5825 5825 5825 5826 5826 5827 5828 5829 5829 5830 5831 5832 5832 5834 5835 5837 5838 5840 5841 5842 5844 5845 5846 5848 5849 5851 5852 5853 5855 5857 5859 5861 5863
5821 5820 5819 5818 5818 5818 5819 5819 5819 5820 5820 5820 5821 5821 5822 5822 5823 5823 5824 5825 5826 5827 5827 5829 5830 5831 5833 5834 5836 5837 5838 5840 5841 5842 5844 5845 5847 5848 5850 5851 5853 5856 5858
5816 5815 5814 5813 5813 5813 5813 5814 5814 5815 5815 5815 5816 5816 5817 5817 5818 5818 5819 5820 5821 5821 5822 5823 5824 5826 5827 5829 5830 5831 5833 5834 5835 5837 5838 5840 5841 5843 5844 5846 5848 5850 5852
5811 5810 5809 5808 5808 5808 5808 5809 5810 5810 5810 5810 5811 5811 5811 5812 5812 5813 5813 5814 5815 5816 5816 5817 5818 5819 5821 5822 5824 5825 5826 5828 5829 5831 5832 5834 5836 5837 5839 5840 5842 5844 5846
5806 5805 5804 5803 5803 5803 5803 5804 5805 5805 5806 5805 5806 5805 5806 5806 5806 5806 5807 5807 5808 5809 5810 5811 5812 5813 5814 5816 5817 5819 5820 5821 5823 5824 5826 5827 5829 5831 5832 5834 5836 5838 5840
5801 5800 5799 5799 5798 5798 5798 5799 5800 5800 5800 5800 5800 5800 5800 5800 5800 5801 5801 5801 5801 5802 5803 5804 5805 5806 5807 5809 5810 5812 5813 5814 5816 5817 5819 5820 5822 5824 5826 5828 5830 5832 5834
5797 5795 5795 5794 5793 5793 5794 5794 5795 5795 5795 5795 5795 5795 5795 5795 5795 5795 5794 5794 5794 5795 5796 5796 5798 5799 5800 5802 5803 5805 5806 5807 5808 5810 5811 5813 5815 5817 5819 5821 5823 5825 5827
5792 5791 5791 5790 5789 5789 5789 5790 5790 5790 5790 5790 5790 5790 5790 5790 5789 5789 5788 5788 5788 5788 5789 5789 5790 5792 5793 5795 5796 5797 5798 5800 5801 5803 5804 5805 5807 5809 5812 5814 5816 5818 5821
5788 5787 5786 5786 5785 5785 5785 5785 5786 5786 5786 5785 5785 5785 5784 5784 5784 5783 5782 5781 5781 5781 5782 5783 5783 5784 5785 5787 5788 5789 5791 5792 5793 5795 5796 5798 5799 5802 5804 5806 5808 5810 5813
5784 5784 5783 5782 5781 5781 5781 5781 5781 5781 5781 5781 5780 5779 5779 5778 5778 5778 5777 5776 5775 5775 5776 5776 5777 5777 5778 5780 5781 5781 5783 5784 5785 5787 5788 5790 5792 5794 5796 5798 5800 5802 5805
5781 5780 5779 5778 5778 5777 5777 5777 5777 5777 5776 5776 5775 5774 5774 5773 5772 5772 5772 5771 5770 5770 5770 5770 5770 5770 5771 5772 5773 5774 5774 5776 5777 5778 5780 5781 5783 5785 5788 5790 5792 5794 5796
5778 5777 5776 5775 5774 5774 5774 5773 5773 5772 5772 5771 5770 5769 5769 5768 5767 5766 5766 5765 5765 5764 5764 5764 5764 5764 5765 5765 5766 5766 5767 5767 5768 5769 5771 5773 5774 5776 5779 5781 5783 5785 5787
5775 5774 5773 5772 5771 5770 5770 5769 5769 5768 5767 5766 5765 5764 5764 5763 5762 5761 5760 5759 5759 5758 5758 5758 5757 5757 5757 5758 5758 5758 5759 5759 5760 5761 5762 5763 5765 5767 5769 5771 5773 5776 5778
5772 5771 5770 5768 5767 5766 5765 5765 5764 5763 5762 5761 5760 5759 5758 5758 5757 5756 5754 5753 5752 5752 5751 5751 5750 5750 5750 5750 5750 5750 5750 5751 5751 5751 5752 5753 5755 5756 5758 5761 5763 5766 5768
5769 5768 5766 5765 5763 5762 5761 5760 5759 5758 5757 5756 5755 5754 5753 5752 5751 5750 5748 5747 5746 5745 5744 5743 5743 5742 5742 5742 5741 5741 5741 5741 5741 5741 5742 5743 5744 5746 5748 5750 5753 5755 5758
5766 5764 5763 5761 5760 5758 5757 5756 5754 5753 5752 5751 5750 5749 5748 5747 5745 5744 5742 5740 5739 5738 5737 5736 5735 5734 5734 5734 5733 5733 5733 5732 5732 5731 5732 5732 5734 5736 5738 5740 5742 5745 5748
5763 5761 5760 5758 5756 5755 5753 5751 5750 5749 5747 5746 5745 5744 5743 5741 5740 5738 5736 5734 5733 5731 5730 5729 5728 5727 5726 5726 5725 5725 5724 5723 5723 5723 5723 5723 5724 5726 5728 5730 5733 5735 5738
5760 5758 5756 5754 5753 5751 5749 5747 5745 5744 5743 5742 5740 5739 5737 5736 5734 5733 5731 5729 5727 5725 5724 5722 5721 5720 5719 5718 5717 5716 5715 5715 5715 5715 5715 5714 5715 5716 5718 5720 5723 5725 5727
5756 5754 5753 5751 5749 5747 5745 5743 5741 5740 5738 5737 5736 5734 5733 5731 5729 5727 5725 5723 5721 5719 5718 5716 5715 5713 5712 5710 5709 5708 5707 5707 5706 5706 5706 5706 5706 5706 5708 5710 5712 5714 5716
5752 5751 5749 5747 5745 5743 5741 5739 5737 5736 5734 5732 5731 5729 5728 5726 5724 5722 5720 5718 5716 5714 5712 5710 5708 5707 5705 5703 5701 5700 5700 5699 5698 5698 5697 5697 5697 5697 5698 5700 5702 5704 5705
5749 5747 5746 5744 5742 5740 5738 5736 5733 5731 5730 5728 5726 5724 5723 5721 5719 5717 5715 5713 5710 5708 5706 5703 5702 5700 5698 5696 5694 5693 5692 5691 5690 5689 5688 5688 5688 5688 5689 5690 5691 5692 5694
5745 5743 5742 5740 5738 5736 5734 5732 5730 5727 5725 5724 5722 5720 5718 5716 5714 5712 5710 5707 5705 5702 5700 5697 5695 5693 5691 5689 5687 5685 5684 5683 5682 5681 5679 5678 5678 5678 5678 5679 5680 5681 5683
5741 5739 5738 5736 5734 5732 5730 5728 5725 5723 5721 5720 5718 5715 5713 5711 5709 5707 5704 5702 5699 5696 5694 5691 5689 5687 5684 5682 5681 5679 5676 5674 5673 5671 5669 5668 5667 5667 5667 5668 5669 5670 5671
5737 5735 5734 5732 5730 5728 5726 5724 5721 5719 5717 5715 5714 5711 5709 5706 5704 5701 5699 5696 5693 5690 5687 5685 5683 5680 5678 5675 5673 5671 5669 5667 5665 5662 5660 5659 5658 5657 5656 5657 5658 5658 5659
5733 5732 5730 5728 5726 5724 5722 5719 5717 5715 5713 5711 5709 5707 5704 5701 5699 5696 5693 5690 5687 5684 5681 5679 5676 5673 5671 5668 5666 5664 5662 5660 5657 5655 5652 5650 5649 5648 5647 5646 5647 5648 5649
5729 5727 5725 5723 5721 5719 5717 5715 5713 5711 5709 5707 5704 5702 5699 5697 5694 5690 5687 5684 5681 5679 5675 5673 5670 5667 5664 5661 5659 5656 5654 5652 5650 5648 5645 5643 5641 5639 5639 5638 5637 5638 5639